TITAN 3C TRANSTAGE DEB, 1684

Orbit data source: Space-Track

TITAN 3C TRANSTAGE DEB, 1684 is space debris in LEO originally from a launch on Fri, 15 Oct 1965 UTC launched from the Air Force Eastern Test Range (AFETR). Debris objects in space refer to the collection of defunct objects orbiting the Earth. Examples of debris include non-operational satellites, rocket bodies, and fragments generated from explosions, collisions, or faulty payload assembly.

Loading next visibility...
Identifier
1684, 1965-082AX
Orbit
LEO
Last TLE update
10 hours ago
Origin
Manufacturer
Unknown
Mission
Spacecraft
Bus & Motor
Unknown
Mass
Unknown
Launch date (UTC)
1965-10-15 (60 years ago)
Launch vehicle
Unknown
Launch site
Air Force Eastern Test Range (AFETR)
Object type
Payload
Rocket body
Debris
Shape & HBR
Unknown
Radar Cross Section
1.200 m², Large (>1 m²)

Expand to show TLE details & history

TLE from 10 hours ago
0 TITAN 3C TRANSTAGE DEB
1 01684U 65082AX  25191.57559970  .00000510  00000-0  12786-3 0  9998
2 01684  32.2156 324.8036 0170523 339.4448  19.9394 14.39075538 93270
Epoch: 2025-07-10T13:48Z
TLE epoch observation values (Epoch: 2025-07-10T13:48:51.814Z)
Latitude
-0.00004°
Longitude
-171.15226°
Altitude
646.053 km
Speed
7.597 km/s
True Right ascension
21h 39m 12s
True Declination
0° 00' 00"
Sunlit
Object was in full shadow at epoch
Visualization orbit readout
Latitude
31.73317°
Longitude
-96.13312°
Altitude
772.391 km
Speed
7.467 km/s
Apparent Right ascension
01h 40m 05s
Apparent Declination
-1° 47' 28"
Sunlit
Object is in daylight
Visualization observer readout
Local Sidereal Time
12:26:05
Azimuth
331.501° NNW
Elevation
-48.334°
Doppler factor
1
Orbital elements
Apogee altitude
886.909 km
Perigee altitude
643.292 km
Semi-major axis
7,143.238 km
Eccentricity
0.01705
Inclination
32.2156°
RAAN
324.8036°
Arg. of periapsis
339.4448°
True anomaly
Unknown
Mean anomaly
19.9394°
Eccentric anomaly
Unknown
Mean motion
3.59501 °/min
Orbital period
100.14 mins
BSTAR
0.00012786
Loading maneuver chart data...
Loading SW <> Apogee altitude chart data...

TITAN 3C TRANSTAGE DEB Visibility forecast

Observer location: undefined°, undefined°

Span
Click to sort rows by Start time (UTC) header in descending order
Start Az.
Max El. time (UTC)
Max El. Az.
Max El.
End time (UTC)
End Az.
7 mins2025-07-11 13:23:53.948Z217.319° SW2025-07-11 13:26:53.948Z173.189° S25.611°2025-07-11 13:30:53.948Z113.978° SE
8 mins2025-07-11 15:09:53.948Z234.356° WSW2025-07-11 15:12:53.948Z180.066° SSW31.039°2025-07-11 15:17:53.948Z116.516° SE
8 mins2025-07-11 16:54:53.948Z244.518° WSW2025-07-11 16:58:53.948Z189.292° SSW24.033°2025-07-11 17:02:53.948Z143.504° SSE
|